Francistown, Botswana

4:43 AM CAT on April 23, 2018 (GMT +0200)
Francistown

Weather History for FBFT - March, 2014

Change the Weather History Date:

Sunday, March 30, 2014

  Actual Average Record
Temperature  
Mean Temperature 67 °F -  
Max Temperature 84 °F 81 °F 93 °F (2011)
Min Temperature 50 °F 57 °F 50 °F (2014)
Cooling Degree Days 2    
Growing Degree Days 17 (Base 50)    
Moisture  
Dew Point 56 °F    
Average Humidity 71    
Maximum Humidity 94    
Minimum Humidity 40    
Precipitation  
Precipitation 0.00 in - - ()
Sea Level Pressure  
Sea Level Pressure 30.06 in    
Wind  
Wind Speed 3 mph ()    
Max Wind Speed 9 mph    
Max Gust Speed -    
Visibility 6.2 miles    
Events      
Averages and records for this station are not official NWS values.
T = Trace of Precipitation, MM = Missing Value Source: Averaged Metar Reports

Daily Weather History Graph

Daily Weather History Graph

Search for Another Location

Airport or City:

Astronomy

Mar. 30, 2014 Rise Set
Actual Time 6:16 AM CAT 6:11 PM CAT
Civil Twilight 5:54 AM CAT 6:34 PM CAT
Nautical Twilight 5:28 AM CAT 6:59 PM CAT
Astronomical Twilight 5:03 AM CAT 7:25 PM CAT
Moon 5:44 AM CAT (3/30) 5:57 PM CAT (3/30)
Length of Visible Light 12h 39m
Length of Day
11h 55m
Waning Crescent, 0% of the Moon is Illuminated
Mar 30
Waning Crescent
Mar 30
New
Apr 7
First Quarter
Apr 15
Full
Apr 22
Last Quarter

Hourly Weather History & Observations

Time (CAT) Temp. Heat Index Dew Point Humidity Pressure Visibility Wind Dir Wind Speed Gust Speed Precip Events Conditions
12:00 AM 57.2 °F - 53.6 °F 88% 30.06 in - Variable 1.2 mph - N/A   Clear
1:00 AM 55.4 °F - 53.6 °F 94% 30.06 in - SSE 3.5 mph - N/A   Clear
2:00 AM 55 °F - 52 °F 88%  in 6 mi West 1.2 mph - -  
3:00 AM 53.6 °F - 51.8 °F 94% 30.06 in - Variable 1.2 mph - N/A   Clear
4:00 AM 53.6 °F - 51.8 °F 94% 30.04 in - Calm Calm - N/A   Clear
5:00 AM 50.0 °F - 48.2 °F 94% 30.06 in - Variable 2.3 mph - N/A   Clear
6:00 AM 51.8 °F - 50.0 °F 94% 30.09 in - Calm Calm - N/A   Clear
7:00 AM 51.8 °F - 50.0 °F 94% 30.09 in - Calm Calm - N/A   Clear
8:00 AM 60.8 °F - 57.2 °F 88% 30.09 in - Variable 2.3 mph - N/A   Clear
9:00 AM 69.8 °F - 60.8 °F 73% 30.12 in - East 6.9 mph - N/A   Clear
10:00 AM 77.0 °F - 59.0 °F 54% 30.09 in - ESE 8.1 mph - N/A   Clear
11:00 AM 78.8 °F - 57.2 °F 47% 30.09 in 6.2 mi ESE 4.6 mph - N/A   Partly Cloudy
12:00 PM 80.6 °F 81.1 °F 59.0 °F 48% 30.09 in 6.2 mi SE 6.9 mph - N/A   Scattered Clouds
1:00 PM 84.2 °F 83.5 °F 57.2 °F 40% 0.00 in 6.2 mi ENE 9.2 mph - N/A   Scattered Clouds
2:00 PM 82.4 °F 82.5 °F 59.0 °F 45% 30.04 in 6.2 mi ENE 8.1 mph - N/A   Scattered Clouds
3:00 PM 82.4 °F 82.0 °F 57.2 °F 42% 30.01 in 6.2 mi East 6.9 mph - N/A   Scattered Clouds
4:00 PM 82.4 °F 82.5 °F 59.0 °F 45% 30.01 in 6.2 mi East 6.9 mph - N/A   Scattered Clouds
5:00 PM 82.4 °F 82.0 °F 57.2 °F 42% 30.01 in 6.2 mi East 6.9 mph - N/A   Scattered Clouds
6:00 PM 77.0 °F - 59.0 °F 54% 30.01 in 6.2 mi SE 5.8 mph - N/A   Partly Cloudy
7:00 PM 71.6 °F - 60.8 °F 69% 30.04 in 6.2 mi SE 3.5 mph - N/A   Partly Cloudy
8:00 PM 69.8 °F - 60.8 °F 73% 30.04 in - SE 4.6 mph - N/A   Clear
9:00 PM 68.0 °F - 59.0 °F 73% 30.06 in - Variable 2.3 mph - N/A   Clear
10:00 PM 64.4 °F - 59.0 °F 83% 30.06 in - SE 4.6 mph - N/A   Clear
11:00 PM 60.8 °F - 59.0 °F 94% 30.06 in - Variable 1.2 mph - N/A   Clear